McConnell AFB, KS

9:47 AM CDT on October 23, 2017 (GMT -0500)
McConnell Air Force Base

Weather History for KIAB - October, 2012

Change the Weather History Date:

Thursday, October 18, 2012

  Actual Average Record
Temperature  
Mean Temperature 57 °F -  
Max Temperature 64 °F 67 °F 89 °F (2005)
Min Temperature 50 °F 46 °F 32 °F (2013)
Degree Days  
Heating Degree Days 8    
Growing Degree Days 7 (Base 50)    
Moisture  
Dew Point 19 °F    
Average Humidity 23    
Maximum Humidity 34    
Minimum Humidity 15    
Precipitation  
Precipitation 0.00 in - - ()
Sea Level Pressure  
Sea Level Pressure 29.83 in    
Wind  
Wind Speed 13 mph (WNW)    
Max Wind Speed 28 mph    
Max Gust Speed 37 mph    
Visibility 8 miles    
Events      
Averages and records for this station are not official NWS values.
T = Trace of Precipitation, MM = Missing Value Source: NWS Daily Summary

Daily Weather History Graph

Daily Weather History Graph

Search for Another Location

Airport or City:

Trip Planner

Search our weather history database for the weather conditions in past years. The results will help you decide how hot, cold, wet, or windy it might be!

Date:

Astronomy

Oct. 18, 2012 Rise Set
Actual Time 7:40 AM CDT 6:46 PM CDT
Civil Twilight 7:14 AM CDT 7:13 PM CDT
Nautical Twilight 6:43 AM CDT 7:43 PM CDT
Astronomical Twilight 6:13 AM CDT 8:14 PM CDT
Moon 11:19 AM CDT (10/18) 9:26 PM CDT (10/18)
Length of Visible Light 11h 59m
Length of Day
11h 06m
Waxing Crescent, 14% of the Moon is Illuminated
Oct 18
Waxing Crescent
Oct 21
First Quarter
Oct 29
Full
Nov 6
Last Quarter
Nov 13
New

Hourly Weather History & Observations

Time (CDT) Temp. Dew Point Humidity Pressure Visibility Wind Dir Wind Speed Gust Speed Precip Events Conditions
12:55 AM 51.1 °F 23.2 °F 34% 29.82 in 10.0 mi West 5.8 mph - N/A   Clear
1:55 AM 52.3 °F 20.5 °F 29% 29.83 in 10.0 mi WNW 8.1 mph - N/A   Clear
2:55 AM 52.2 °F 22.3 °F 31% 29.84 in 10.0 mi WNW 8.1 mph - N/A   Clear
3:55 AM 52.3 °F 22.6 °F 31% 29.84 in 10.0 mi WNW 8.1 mph - N/A   Clear
4:55 AM 52.7 °F 21.9 °F 30% 29.84 in 10.0 mi WNW 9.2 mph - N/A   Clear
5:55 AM 52.2 °F 21.0 °F 30% 29.86 in 10.0 mi NW 15.0 mph 20.7 mph N/A   Clear
6:55 AM 51.3 °F 21.0 °F 31% 29.88 in 10.0 mi WNW 13.8 mph 24.2 mph N/A   Clear
7:55 AM 50.7 °F 19.4 °F 29% 29.86 in 10.0 mi West 10.4 mph - N/A   Clear
8:55 AM 51.3 °F 20.8 °F 30% 29.88 in 10.0 mi WNW 12.7 mph 21.9 mph N/A   Clear
9:55 AM 53.1 °F 19.8 °F 27% 29.87 in 10.0 mi NW 18.4 mph 34.5 mph N/A   Clear
10:55 AM 56.1 °F 19.2 °F 24% 29.86 in 10.0 mi NW 20.7 mph 32.2 mph N/A   Clear
11:55 AM 58.6 °F 16.2 °F 19% 29.85 in 10.0 mi NW 21.9 mph 36.8 mph N/A   Clear
12:55 PM 60.6 °F 17.4 °F 19% 29.83 in 10.0 mi NW 18.4 mph 31.1 mph N/A   Clear
1:55 PM 62.4 °F 18.7 °F 19% 29.81 in 10.0 mi NW 20.7 mph 36.8 mph N/A   Clear
2:55 PM 63.5 °F 18.0 °F 17% 29.78 in 8.0 mi NW 27.6 mph 35.7 mph N/A   Clear
3:46 PM 64.4 °F 17.6 °F 16% 29.78 in 7.0 mi WNW 21.9 mph 34.5 mph N/A   Partly Cloudy
3:55 PM 63.9 °F 17.8 °F 17% 29.78 in 6.0 mi WNW 23.0 mph 32.2 mph N/A   Haze
4:24 PM 64.4 °F 17.6 °F 16% 29.78 in 4.0 mi NW 26.5 mph 33.4 mph N/A   Haze
4:55 PM 63.9 °F 17.1 °F 16% 29.79 in 4.0 mi WNW 21.9 mph 35.7 mph N/A   Haze
5:55 PM 63.1 °F 15.1 °F 15% 29.79 in 4.0 mi NW 17.3 mph 29.9 mph N/A   Haze
6:55 PM 62.2 °F 16.9 °F 17% 29.81 in 4.0 mi NW 11.5 mph 24.2 mph N/A   Haze
7:03 PM 62.6 °F 17.6 °F 18% 29.81 in 5.0 mi WNW 12.7 mph 20.7 mph N/A   Haze
7:12 PM 62.6 °F 17.6 °F 18% 29.81 in 7.0 mi NW 9.2 mph - N/A   Overcast
7:15 PM 62.6 °F 17.6 °F 18% 29.82 in 7.0 mi WNW 11.5 mph - N/A   Mostly Cloudy
7:22 PM 62.6 °F 19.4 °F 19% 29.82 in 7.0 mi NW 12.7 mph 18.4 mph N/A   Scattered Clouds
7:55 PM 61.2 °F 20.1 °F 21% 29.83 in 8.0 mi WNW 9.2 mph - N/A   Clear
8:41 PM 59.0 °F 21.2 °F 23% 29.84 in 8.0 mi WNW 8.1 mph - N/A   Clear
8:55 PM 59.5 °F 20.8 °F 22% 29.84 in 9.0 mi WNW 10.4 mph - N/A   Clear
9:55 PM 58.1 °F 19.8 °F 23% 29.84 in 9.0 mi WNW 10.4 mph - N/A   Clear
10:02 PM 59.0 °F 19.4 °F 22% 29.83 in 9.0 mi WNW 12.7 mph - N/A   Clear
10:55 PM 58.3 °F 19.8 °F 22% 29.84 in 10.0 mi NW 16.1 mph 23.0 mph N/A   Clear
11:55 PM 56.5 °F 19.9 °F 24% 29.85 in 10.0 mi NW 12.7 mph - N/A   Clear